TimeEST,TemperatureF,Dew PointF,Humidity,Sea Level PressureIn,VisibilityMPH,Wind Direction,Wind SpeedMPH,Gust SpeedMPH,PrecipitationIn,Events,Conditions,WindDirDegrees,DateUTC
12:15 AM,26.6,23.0,86,29.62,2.5,SSE,5.8,-,N/A,,Overcast,150,2013-01-17 05:15:00
12:35 AM,26.6,23.0,86,29.61,3.0,SSE,5.8,-,N/A,,Overcast,160,2013-01-17 05:35:00
12:55 AM,26.6,24.8,93,29.61,3.0,SSE,5.8,-,N/A,,Overcast,150,2013-01-17 05:55:00
1:15 AM,26.6,24.8,93,29.61,2.5,South,5.8,-,N/A,,Overcast,170,2013-01-17 06:15:00
1:35 AM,26.6,24.8,93,29.60,3.0,Calm,Calm,-,N/A,,Overcast,0,2013-01-17 06:35:00
1:55 AM,28.4,24.8,86,29.61,10.0,SW,3.5,-,N/A,,Overcast,230,2013-01-17 06:55:00
2:15 AM,28.4,24.8,86,29.60,10.0,SSW,3.5,-,N/A,,Overcast,200,2013-01-17 07:15:00
2:35 AM,28.4,24.8,86,29.60,10.0,WSW,3.5,-,N/A,,Overcast,240,2013-01-17 07:35:00
2:55 AM,28.4,24.8,86,29.59,10.0,SW,5.8,-,N/A,,Mostly Cloudy,220,2013-01-17 07:55:00
3:35 AM,28.4,24.8,86,29.57,10.0,SW,5.8,-,N/A,,Overcast,220,2013-01-17 08:35:00
3:55 AM,28.4,26.6,93,29.56,10.0,South,5.8,-,N/A,,Overcast,190,2013-01-17 08:55:00
4:15 AM,28.4,24.8,86,29.55,10.0,SSW,6.9,-,N/A,,Overcast,200,2013-01-17 09:15:00
4:35 AM,28.4,24.8,86,29.55,10.0,South,9.2,-,N/A,,Overcast,180,2013-01-17 09:35:00
4:55 AM,28.4,24.8,86,29.54,10.0,South,9.2,-,N/A,,Overcast,180,2013-01-17 09:55:00
5:15 AM,30.2,24.8,80,29.54,10.0,SSW,6.9,-,N/A,,Overcast,200,2013-01-17 10:15:00
5:35 AM,30.2,24.8,80,29.53,10.0,South,6.9,-,N/A,,Overcast,180,2013-01-17 10:35:00
5:55 AM,30.2,23.0,75,29.53,10.0,South,9.2,-,N/A,,Overcast,180,2013-01-17 10:55:00
6:15 AM,30.2,24.8,80,29.53,10.0,South,9.2,-,N/A,,Overcast,180,2013-01-17 11:15:00
6:35 AM,30.2,24.8,80,29.53,10.0,South,6.9,-,N/A,,Overcast,190,2013-01-17 11:35:00
6:55 AM,28.4,23.0,80,29.53,10.0,South,9.2,-,N/A,,Overcast,180,2013-01-17 11:55:00
7:15 AM,30.2,23.0,75,29.54,10.0,SSW,8.1,-,N/A,,Mostly Cloudy,210,2013-01-17 12:15:00
7:35 AM,30.2,24.8,80,29.55,10.0,SW,9.2,-,N/A,,Clear,220,2013-01-17 12:35:00
7:55 AM,30.2,23.0,75,29.56,10.0,SSW,10.4,-,N/A,,Clear,210,2013-01-17 12:55:00
8:15 AM,30.2,23.0,75,29.57,10.0,SW,9.2,-,N/A,,Scattered Clouds,230,2013-01-17 13:15:00
8:35 AM,30.2,23.0,75,29.57,7.0,SW,11.5,-,N/A,,Overcast,230,2013-01-17 13:35:00
8:55 AM,30.2,23.0,75,29.57,10.0,SW,15.0,21.9,N/A,,Overcast,230,2013-01-17 13:55:00
9:15 AM,32.0,23.0,69,29.57,10.0,SW,12.7,19.6,N/A,,Overcast,230,2013-01-17 14:15:00
9:35 AM,33.8,23.0,65,29.58,10.0,WSW,12.7,23.0,N/A,,Overcast,240,2013-01-17 14:35:00
9:55 AM,32.0,23.0,69,29.58,10.0,SW,11.5,21.9,N/A,,Overcast,220,2013-01-17 14:55:00
10:15 AM,33.8,23.0,65,29.59,10.0,WSW,12.7,19.6,N/A,,Mostly Cloudy,250,2013-01-17 15:15:00
10:55 AM,24.8,21.2,86,29.62,1.0,NNW,17.3,-,N/A,,Overcast,340,2013-01-17 15:55:00
11:15 AM,24.8,19.4,80,29.63,10.0,NW,15.0,-,N/A,,Overcast,320,2013-01-17 16:15:00
11:35 AM,24.8,19.4,80,29.64,0.8,NNW,12.7,-,N/A,,Overcast,340,2013-01-17 16:35:00
11:55 AM,23.0,15.8,74,29.65,10.0,North,17.3,-,N/A,,Overcast,360,2013-01-17 16:55:00
12:15 PM,21.2,12.2,68,29.67,3.0,NNW,21.9,26.5,N/A,,Mostly Cloudy,330,2013-01-17 17:15:00
12:35 PM,19.4,10.4,68,29.69,10.0,North,23.0,26.5,N/A,,Overcast,360,2013-01-17 17:35:00
12:55 PM,15.8,6.8,68,29.72,10.0,North,21.9,-,N/A,,Overcast,360,2013-01-17 17:55:00
1:15 PM,15.8,6.8,68,29.74,9.0,NNW,20.7,26.5,N/A,,Mostly Cloudy,330,2013-01-17 18:15:00
1:35 PM,12.2,3.2,67,29.76,7.0,North,20.7,27.6,N/A,,Overcast,360,2013-01-17 18:35:00
1:55 PM,12.2,1.4,62,29.79,9.0,North,20.7,28.8,N/A,,Overcast,360,2013-01-17 18:55:00
2:15 PM,10.4,-0.4,62,29.80,10.0,NNW,20.7,-,N/A,,Partly Cloudy,330,2013-01-17 19:15:00
2:35 PM,10.4,-2.2,57,29.82,5.0,NW,23.0,-,N/A,,Clear,320,2013-01-17 19:35:00
2:55 PM,10.4,-4.0,52,29.84,10.0,NNW,20.7,26.5,N/A,,Clear,340,2013-01-17 19:55:00
3:15 PM,8.6,-7.6,48,29.87,5.0,NNW,24.2,29.9,N/A,,Clear,330,2013-01-17 20:15:00
3:35 PM,6.8,-7.6,52,29.88,9.0,North,24.2,28.8,N/A,,Clear,360,2013-01-17 20:35:00
3:55 PM,6.8,-9.4,48,29.90,10.0,North,19.6,-,N/A,,Clear,360,2013-01-17 20:55:00
4:15 PM,5.0,-11.2,47,29.92,10.0,North,13.8,-,N/A,,Clear,360,2013-01-17 21:15:00
4:35 PM,3.2,-11.2,51,29.94,10.0,North,13.8,-,N/A,,Clear,360,2013-01-17 21:35:00
4:55 PM,1.4,-14.8,47,29.96,10.0,North,15.0,-,N/A,,Clear,360,2013-01-17 21:55:00
5:15 PM,1.4,-13.0,51,29.98,10.0,North,16.1,-,N/A,,Clear,360,2013-01-17 22:15:00
5:35 PM,-0.4,-16.6,46,29.98,10.0,NNW,15.0,-,N/A,,Clear,340,2013-01-17 22:35:00
5:55 PM,-0.4,-16.6,46,29.99,10.0,NNW,13.8,-,N/A,,Clear,340,2013-01-17 22:55:00
6:15 PM,-0.4,-18.4,43,30.01,10.0,NNW,12.7,-,N/A,,Clear,330,2013-01-17 23:15:00
6:35 PM,-0.4,-20.2,39,30.01,10.0,NNW,11.5,-,N/A,,Clear,330,2013-01-17 23:35:00
6:55 PM,-2.2,-20.2,42,30.01,10.0,NNW,12.7,-,N/A,,Clear,330,2013-01-17 23:55:00
7:15 PM,-2.2,-20.2,42,30.03,10.0,NNW,11.5,-,N/A,,Clear,330,2013-01-18 00:15:00
7:55 PM,-2.2,-20.2,42,30.04,10.0,NNW,11.5,-,N/A,,Clear,340,2013-01-18 00:55:00
8:15 PM,-2.2,-20.2,42,30.04,10.0,NNW,11.5,-,N/A,,Clear,340,2013-01-18 01:15:00
8:35 PM,-2.2,-18.4,46,30.05,10.0,NNW,10.4,-,N/A,,Clear,340,2013-01-18 01:35:00
8:55 PM,-4.0,-18.4,50,30.06,10.0,North,5.8,-,N/A,,Clear,10,2013-01-18 01:55:00
9:15 PM,-4.0,-20.2,46,30.06,10.0,North,9.2,-,N/A,,Clear,10,2013-01-18 02:15:00
9:35 PM,-5.8,-18.4,55,30.07,10.0,North,6.9,-,N/A,,Clear,360,2013-01-18 02:35:00
9:55 PM,-5.8,-18.4,55,30.06,10.0,North,4.6,-,N/A,,Clear,360,2013-01-18 02:55:00
10:15 PM,-5.8,-20.2,50,30.05,10.0,North,8.1,-,N/A,,Clear,360,2013-01-18 03:15:00
10:35 PM,-5.8,-18.4,55,30.06,10.0,North,6.9,-,N/A,,Clear,360,2013-01-18 03:35:00
10:55 PM,-7.6,-20.2,54,30.04,10.0,North,5.8,-,N/A,,Clear,360,2013-01-18 03:55:00
11:15 PM,-7.6,-18.4,59,30.05,10.0,Calm,Calm,-,N/A,,Clear,0,2013-01-18 04:15:00
11:35 PM,-7.6,-16.6,65,30.05,10.0,NNW,8.1,-,N/A,,Clear,340,2013-01-18 04:35:00
11:55 PM,-7.6,-18.4,59,30.05,10.0,NNW,6.9,-,N/A,,Clear,340,2013-01-18 04:55:00